Time,TemperatureF,DewpointF,PressureIn,WindDirection,WindDirectionDegrees,WindSpeedMPH,WindSpeedGustMPH,Humidity,HourlyPrecipIn,Conditions,Clouds,dailyrainin,SolarRadiationWatts/m^2,SoftwareType,DateUTC
2013-08-08 00:02:00,74.2,58.5,29.81,South,185,0.0,1.0,58,0.00,,,0.00,0,WeatherCatV1.11B39,2013-08-08 07:02:00,
2013-08-08 00:07:00,74.2,58.5,29.81,South,185,0.0,0.0,58,0.00,,,0.00,0,WeatherCatV1.11B39,2013-08-08 07:07:00,
2013-08-08 00:12:00,73.5,58.3,29.81,South,185,1.0,2.0,59,0.00,,,0.00,0,WeatherCatV1.11B39,2013-08-08 07:12:00,
2013-08-08 00:17:00,73.1,58.4,29.81,South,185,1.0,2.0,60,0.00,,,0.00,0,WeatherCatV1.11B39,2013-08-08 07:17:00,
2013-08-08 00:22:00,72.6,57.4,29.81,South,185,1.0,2.0,59,0.00,,,0.00,0,WeatherCatV1.11B39,2013-08-08 07:22:00,
2013-08-08 00:27:00,72.6,57.4,29.80,South,185,0.0,0.0,59,0.00,,,0.00,0,WeatherCatV1.11B39,2013-08-08 07:27:00,
2013-08-08 00:32:00,72.5,57.8,29.80,South,185,2.0,2.0,60,0.00,,,0.00,0,WeatherCatV1.11B39,2013-08-08 07:32:00,
2013-08-08 00:37:00,72.5,58.3,29.80,South,185,0.0,1.0,61,0.00,,,0.00,0,WeatherCatV1.11B39,2013-08-08 07:37:00,
2013-08-08 00:42:00,72.2,58.0,29.80,South,185,1.0,2.0,61,0.00,,,0.00,0,WeatherCatV1.11B39,2013-08-08 07:42:00,
2013-08-08 00:47:00,72.4,57.7,29.80,South,185,0.0,1.0,60,0.00,,,0.00,0,WeatherCatV1.11B39,2013-08-08 07:47:00,
2013-08-08 00:52:00,72.8,57.6,29.80,South,185,0.0,0.0,59,0.00,,,0.00,0,WeatherCatV1.11B39,2013-08-08 07:52:00,
2013-08-08 00:57:00,72.8,58.1,29.80,South,185,0.0,1.0,60,0.00,,,0.00,0,WeatherCatV1.11B39,2013-08-08 07:57:00,
2013-08-08 01:02:00,72.7,58.5,29.80,South,185,1.0,1.0,61,0.00,,,0.00,0,WeatherCatV1.11B39,2013-08-08 08:02:00,
2013-08-08 01:07:00,72.4,58.2,29.80,SSE,159,2.0,3.0,61,0.00,,,0.00,0,WeatherCatV1.11B39,2013-08-08 08:07:00,
2013-08-08 01:12:00,72.5,58.3,29.81,SSE,159,1.0,1.0,61,0.00,,,0.00,0,WeatherCatV1.11B39,2013-08-08 08:12:00,
2013-08-08 01:17:00,72.6,58.4,29.80,SSE,159,1.0,2.0,61,0.00,,,0.00,0,WeatherCatV1.11B39,2013-08-08 08:17:00,
2013-08-08 01:22:00,71.8,58.1,29.80,SSE,159,1.0,2.0,62,0.00,,,0.00,0,WeatherCatV1.11B39,2013-08-08 08:22:00,
2013-08-08 01:27:00,71.7,58.0,29.80,SSE,159,0.0,1.0,62,0.00,,,0.00,0,WeatherCatV1.11B39,2013-08-08 08:27:00,
2013-08-08 01:32:00,71.7,58.0,29.80,SSE,159,0.0,0.0,62,0.00,,,0.00,0,WeatherCatV1.11B39,2013-08-08 08:32:00,
2013-08-08 01:37:00,71.2,57.9,29.80,SSE,159,1.0,2.0,63,0.00,,,0.00,0,WeatherCatV1.11B39,2013-08-08 08:37:00,
2013-08-08 01:42:00,71.0,58.2,29.80,SSE,159,0.0,2.0,64,0.00,,,0.00,0,WeatherCatV1.11B39,2013-08-08 08:42:00,
2013-08-08 01:47:00,71.2,58.4,29.80,SSE,159,1.0,1.0,64,0.00,,,0.00,0,WeatherCatV1.11B39,2013-08-08 08:47:00,
2013-08-08 01:52:00,71.4,57.7,29.80,SSE,157,2.0,3.0,62,0.00,,,0.00,0,WeatherCatV1.11B39,2013-08-08 08:52:00,
2013-08-08 01:57:00,71.5,57.3,29.80,SSE,152,0.0,2.0,61,0.00,,,0.00,0,WeatherCatV1.11B39,2013-08-08 08:57:00,
2013-08-08 02:02:00,71.4,57.2,29.80,SSE,151,1.0,2.0,61,0.00,,,0.00,0,WeatherCatV1.11B39,2013-08-08 09:02:00,
2013-08-08 02:07:00,71.8,57.2,29.80,SSE,151,0.0,0.0,60,0.00,,,0.00,0,WeatherCatV1.11B39,2013-08-08 09:07:00,
2013-08-08 02:12:00,71.6,57.4,29.80,SSE,152,0.0,0.0,61,0.00,,,0.00,0,WeatherCatV1.11B39,2013-08-08 09:12:00,
2013-08-08 02:17:00,71.7,57.1,29.79,SSE,151,1.0,1.0,60,0.00,,,0.00,0,WeatherCatV1.11B39,2013-08-08 09:17:00,
2013-08-08 02:22:00,71.3,57.1,29.79,SSE,151,0.0,1.0,61,0.00,,,0.00,0,WeatherCatV1.11B39,2013-08-08 09:22:00,
2013-08-08 02:27:00,70.9,57.7,29.79,SSE,151,0.0,1.0,63,0.00,,,0.00,0,WeatherCatV1.11B39,2013-08-08 09:27:00,
2013-08-08 02:32:00,70.9,57.7,29.79,SSE,151,0.0,0.0,63,0.00,,,0.00,0,WeatherCatV1.11B39,2013-08-08 09:32:00,
2013-08-08 02:37:00,70.8,58.0,29.80,SSE,151,0.0,0.0,64,0.00,,,0.00,0,WeatherCatV1.11B39,2013-08-08 09:37:00,
2013-08-08 02:42:00,70.4,57.6,29.80,SSE,151,0.0,0.0,64,0.00,,,0.00,0,WeatherCatV1.11B39,2013-08-08 09:42:00,
2013-08-08 02:47:00,70.2,57.9,29.79,SSE,151,0.0,1.0,65,0.00,,,0.00,0,WeatherCatV1.11B39,2013-08-08 09:47:00,
2013-08-08 02:52:00,70.3,57.5,29.79,SSE,151,2.0,2.0,64,0.00,,,0.00,0,WeatherCatV1.11B39,2013-08-08 09:52:00,
2013-08-08 02:57:00,70.3,57.1,29.79,SSE,151,1.0,2.0,63,0.00,,,0.00,0,WeatherCatV1.11B39,2013-08-08 09:57:00,
2013-08-08 03:02:00,70.5,57.3,29.79,SSE,151,1.0,2.0,63,0.00,,,0.00,0,WeatherCatV1.11B39,2013-08-08 10:02:00,
2013-08-08 03:07:00,70.7,57.5,29.79,SSE,148,2.0,3.0,63,0.00,,,0.00,0,WeatherCatV1.11B39,2013-08-08 10:07:00,
2013-08-08 03:12:00,70.6,56.9,29.79,SSE,147,1.0,3.0,62,0.00,,,0.00,0,WeatherCatV1.11B39,2013-08-08 10:12:00,
2013-08-08 03:17:00,70.8,57.6,29.79,SSE,147,0.0,2.0,63,0.00,,,0.00,0,WeatherCatV1.11B39,2013-08-08 10:17:00,
2013-08-08 03:22:00,71.1,57.4,29.79,SSE,147,2.0,2.0,62,0.00,,,0.00,0,WeatherCatV1.11B39,2013-08-08 10:22:00,
2013-08-08 03:27:00,70.7,57.0,29.79,SSE,147,1.0,2.0,62,0.00,,,0.00,0,WeatherCatV1.11B39,2013-08-08 10:27:00,
2013-08-08 03:32:00,70.4,56.7,29.79,SSE,147,2.0,2.0,62,0.00,,,0.00,0,WeatherCatV1.11B39,2013-08-08 10:32:00,
2013-08-08 03:37:00,70.0,57.7,29.79,SSE,147,1.0,2.0,65,0.00,,,0.00,0,WeatherCatV1.11B39,2013-08-08 10:37:00,
2013-08-08 03:42:00,69.8,57.5,29.79,SSE,147,1.0,2.0,65,0.00,,,0.00,0,WeatherCatV1.11B39,2013-08-08 10:42:00,
2013-08-08 03:47:00,69.7,57.4,29.79,SSE,147,1.0,2.0,65,0.00,,,0.00,0,WeatherCatV1.11B39,2013-08-08 10:47:00,
2013-08-08 03:52:00,69.7,57.8,29.79,SSE,147,1.0,2.0,66,0.00,,,0.00,0,WeatherCatV1.11B39,2013-08-08 10:52:00,
2013-08-08 03:57:00,69.6,57.3,29.79,SSE,147,1.0,1.0,65,0.00,,,0.00,0,WeatherCatV1.11B39,2013-08-08 10:57:00,
2013-08-08 04:02:00,69.5,57.6,29.79,SSE,147,1.0,2.0,66,0.00,,,0.00,0,WeatherCatV1.11B39,2013-08-08 11:02:00,
2013-08-08 04:07:00,69.4,58.0,29.79,SSE,147,2.0,2.0,67,0.00,,,0.00,0,WeatherCatV1.11B39,2013-08-08 11:07:00,
2013-08-08 04:12:00,69.4,58.4,29.79,SE,146,3.0,3.0,68,0.00,,,0.00,0,WeatherCatV1.11B39,2013-08-08 11:12:00,
2013-08-08 04:17:00,69.5,58.0,29.79,SE,145,2.0,3.0,67,0.00,,,0.00,0,WeatherCatV1.11B39,2013-08-08 11:17:00,
2013-08-08 04:22:00,70.1,57.8,29.79,SE,145,1.0,2.0,65,0.00,,,0.00,0,WeatherCatV1.11B39,2013-08-08 11:22:00,
2013-08-08 04:27:00,70.8,56.7,29.79,SE,145,1.0,2.0,61,0.00,,,0.00,0,WeatherCatV1.11B39,2013-08-08 11:27:00,
2013-08-08 04:32:00,70.7,57.9,29.79,SE,145,1.0,2.0,64,0.00,,,0.00,0,WeatherCatV1.11B39,2013-08-08 11:32:00,
2013-08-08 04:37:00,70.3,58.0,29.79,SE,145,0.0,1.0,65,0.00,,,0.00,0,WeatherCatV1.11B39,2013-08-08 11:37:00,
2013-08-08 04:42:00,70.0,57.7,29.79,SE,145,0.0,1.0,65,0.00,,,0.00,0,WeatherCatV1.11B39,2013-08-08 11:42:00,
2013-08-08 04:47:00,69.8,57.9,29.79,SE,145,0.0,0.0,66,0.00,,,0.00,0,WeatherCatV1.11B39,2013-08-08 11:47:00,
2013-08-08 04:52:00,69.3,57.9,29.79,SE,145,0.0,1.0,67,0.00,,,0.00,0,WeatherCatV1.11B39,2013-08-08 11:52:00,
2013-08-08 04:57:00,68.8,57.4,29.79,SE,145,0.0,0.0,67,0.00,,,0.00,0,WeatherCatV1.11B39,2013-08-08 11:57:00,
2013-08-08 05:02:00,68.4,57.8,29.79,SE,145,0.0,0.0,69,0.00,,,0.00,0,WeatherCatV1.11B39,2013-08-08 12:02:00,
2013-08-08 05:07:00,68.0,57.8,29.80,SE,145,0.0,1.0,70,0.00,,,0.00,0,WeatherCatV1.11B39,2013-08-08 12:07:00,
2013-08-08 05:12:00,67.4,57.7,29.80,SE,145,0.0,0.0,71,0.00,,,0.00,0,WeatherCatV1.11B39,2013-08-08 12:12:00,
2013-08-08 05:17:00,67.4,57.7,29.80,SSE,151,0.0,2.0,71,0.00,,,0.00,0,WeatherCatV1.11B39,2013-08-08 12:17:00,
2013-08-08 05:22:00,67.0,57.7,29.80,SSE,151,0.0,0.0,72,0.00,,,0.00,0,WeatherCatV1.11B39,2013-08-08 12:22:00,
2013-08-08 05:27:00,66.8,57.9,29.81,SSE,151,1.0,1.0,73,0.00,,,0.00,0,WeatherCatV1.11B39,2013-08-08 12:27:00,
2013-08-08 05:32:00,66.8,57.5,29.81,SSE,151,0.0,2.0,72,0.00,,,0.00,0,WeatherCatV1.11B39,2013-08-08 12:32:00,
2013-08-08 05:37:00,67.0,57.3,29.81,SSE,151,0.0,0.0,71,0.00,,,0.00,0,WeatherCatV1.11B39,2013-08-08 12:37:00,
2013-08-08 05:42:00,67.4,57.3,29.81,SSE,151,0.0,0.0,70,0.00,,,0.00,0,WeatherCatV1.11B39,2013-08-08 12:42:00,
2013-08-08 05:47:00,67.5,57.8,29.81,SSE,151,0.0,0.0,71,0.00,,,0.00,7,WeatherCatV1.11B39,2013-08-08 12:47:00,
2013-08-08 05:52:00,67.3,57.6,29.82,SSE,151,0.0,0.0,71,0.00,,,0.00,9,WeatherCatV1.11B39,2013-08-08 12:52:00,
2013-08-08 05:57:00,66.9,58.0,29.82,SSE,151,0.0,0.0,73,0.00,,,0.00,12,WeatherCatV1.11B39,2013-08-08 12:57:00,
2013-08-08 06:02:00,66.8,57.9,29.82,SSE,151,0.0,0.0,73,0.00,,,0.00,16,WeatherCatV1.11B39,2013-08-08 13:02:00,
2013-08-08 06:07:00,67.0,58.4,29.82,SSE,151,0.0,0.0,74,0.00,,,0.00,18,WeatherCatV1.11B39,2013-08-08 13:07:00,
2013-08-08 06:12:00,66.8,58.2,29.82,SSE,151,0.0,0.0,74,0.00,,,0.00,21,WeatherCatV1.11B39,2013-08-08 13:12:00,
2013-08-08 06:17:00,67.0,58.4,29.82,SSE,151,0.0,1.0,74,0.00,,,0.00,40,WeatherCatV1.11B39,2013-08-08 13:17:00,
2013-08-08 06:22:00,68.1,58.7,29.83,SSE,151,0.0,0.0,72,0.00,,,0.00,56,WeatherCatV1.11B39,2013-08-08 13:22:00,
2013-08-08 06:27:00,68.7,58.9,29.83,SSE,151,0.0,0.0,71,0.00,,,0.00,72,WeatherCatV1.11B39,2013-08-08 13:27:00,
2013-08-08 06:32:00,69.2,59.0,29.83,SSE,151,0.0,0.0,70,0.00,,,0.00,88,WeatherCatV1.11B39,2013-08-08 13:32:00,
2013-08-08 06:37:00,69.9,59.3,29.83,SSE,151,0.0,0.0,69,0.00,,,0.00,109,WeatherCatV1.11B39,2013-08-08 13:37:00,
2013-08-08 06:42:00,70.7,59.2,29.83,SSE,152,0.0,1.0,67,0.00,,,0.00,125,WeatherCatV1.11B39,2013-08-08 13:42:00,
2013-08-08 06:47:00,71.6,58.8,29.83,SSE,152,1.0,2.0,64,0.00,,,0.00,142,WeatherCatV1.11B39,2013-08-08 13:47:00,
2013-08-08 06:52:00,71.9,58.6,29.83,SSE,152,0.0,2.0,63,0.00,,,0.00,163,WeatherCatV1.11B39,2013-08-08 13:52:00,
2013-08-08 06:57:00,72.5,58.3,29.83,SSE,152,0.0,2.0,61,0.00,,,0.00,179,WeatherCatV1.11B39,2013-08-08 13:57:00,
2013-08-08 07:02:00,73.1,57.4,29.83,SSE,152,0.0,1.0,58,0.00,,,0.00,193,WeatherCatV1.11B39,2013-08-08 14:02:00,
2013-08-08 07:07:00,73.9,59.1,29.83,SSE,152,1.0,2.0,60,0.00,,,0.00,213,WeatherCatV1.11B39,2013-08-08 14:07:00,
2013-08-08 07:12:00,74.6,57.8,29.83,SSE,152,1.0,2.0,56,0.00,,,0.00,227,WeatherCatV1.11B39,2013-08-08 14:12:00,
2013-08-08 07:17:00,75.1,57.3,29.83,SSE,152,0.0,0.0,54,0.00,,,0.00,243,WeatherCatV1.11B39,2013-08-08 14:17:00,
2013-08-08 07:22:00,75.6,58.3,29.83,SSE,152,0.0,2.0,55,0.00,,,0.00,262,WeatherCatV1.11B39,2013-08-08 14:22:00,
2013-08-08 07:27:00,76.1,57.7,29.83,SSE,152,1.0,1.0,53,0.00,,,0.00,279,WeatherCatV1.11B39,2013-08-08 14:27:00,
2013-08-08 07:32:00,76.7,57.2,29.84,SSE,152,0.0,1.0,51,0.00,,,0.00,295,WeatherCatV1.11B39,2013-08-08 14:32:00,
2013-08-08 07:37:00,77.2,57.6,29.84,SSE,152,0.0,1.0,51,0.00,,,0.00,315,WeatherCatV1.11B39,2013-08-08 14:37:00,
2013-08-08 07:42:00,78.2,58.6,29.84,SSE,152,0.0,3.0,51,0.00,,,0.00,330,WeatherCatV1.11B39,2013-08-08 14:42:00,
2013-08-08 07:47:00,79.0,57.6,29.84,SSE,152,0.0,1.0,48,0.00,,,0.00,348,WeatherCatV1.11B39,2013-08-08 14:47:00,
2013-08-08 07:52:00,79.4,57.4,29.84,SSE,152,0.0,1.0,47,0.00,,,0.00,366,WeatherCatV1.11B39,2013-08-08 14:52:00,
2013-08-08 07:57:00,79.9,57.8,29.84,SSE,152,1.0,1.0,47,0.00,,,0.00,381,WeatherCatV1.11B39,2013-08-08 14:57:00,
2013-08-08 08:02:00,80.2,58.1,29.84,SSE,152,1.0,1.0,47,0.00,,,0.00,397,WeatherCatV1.11B39,2013-08-08 15:02:00,
2013-08-08 08:07:00,80.8,57.4,29.84,SSE,153,0.0,0.0,45,0.00,,,0.00,418,WeatherCatV1.11B39,2013-08-08 15:07:00,
2013-08-08 08:12:00,81.9,58.4,29.84,SSE,153,0.0,1.0,45,0.00,,,0.00,432,WeatherCatV1.11B39,2013-08-08 15:12:00,
2013-08-08 08:17:00,82.3,56.9,29.84,SSE,155,1.0,2.0,42,0.00,,,0.00,448,WeatherCatV1.11B39,2013-08-08 15:17:00,
2013-08-08 08:22:00,82.8,57.3,29.84,SSE,155,2.0,3.0,42,0.00,,,0.00,468,WeatherCatV1.11B39,2013-08-08 15:22:00,
2013-08-08 08:27:00,83.6,58.0,29.84,SSE,155,0.0,2.0,42,0.00,,,0.00,482,WeatherCatV1.11B39,2013-08-08 15:27:00,
2013-08-08 08:32:00,83.6,58.0,29.84,SSE,155,1.0,2.0,42,0.00,,,0.00,497,WeatherCatV1.11B39,2013-08-08 15:32:00,
2013-08-08 08:37:00,84.3,58.7,29.84,WSW,257,3.0,4.0,42,0.00,,,0.00,515,WeatherCatV1.11B39,2013-08-08 15:37:00,
2013-08-08 08:42:00,84.9,57.8,29.83,WSW,248,2.0,4.0,40,0.00,,,0.00,531,WeatherCatV1.11B39,2013-08-08 15:42:00,
2013-08-08 08:47:00,85.2,57.4,29.84,WSW,249,4.0,4.0,39,0.00,,,0.00,545,WeatherCatV1.11B39,2013-08-08 15:47:00,
2013-08-08 08:52:00,85.6,57.8,29.84,WSW,253,4.0,4.0,39,0.00,,,0.00,561,WeatherCatV1.11B39,2013-08-08 15:52:00,
2013-08-08 08:57:00,86.6,57.2,29.84,WSW,258,1.0,4.0,37,0.00,,,0.00,577,WeatherCatV1.11B39,2013-08-08 15:57:00,
2013-08-08 09:02:00,87.4,57.1,29.84,SSW,207,3.0,3.0,36,0.00,,,0.00,592,WeatherCatV1.11B39,2013-08-08 16:02:00,
2013-08-08 09:07:00,87.2,55.4,29.84,SSW,210,4.0,4.0,34,0.00,,,0.00,606,WeatherCatV1.11B39,2013-08-08 16:07:00,
2013-08-08 09:12:00,87.5,55.6,29.84,SSW,205,1.0,2.0,34,0.00,,,0.00,622,WeatherCatV1.11B39,2013-08-08 16:12:00,
2013-08-08 09:17:00,88.6,54.0,29.84,SW,220,3.0,4.0,31,0.00,,,0.00,636,WeatherCatV1.11B39,2013-08-08 16:17:00,
2013-08-08 09:22:00,88.8,55.1,29.84,SSW,213,0.0,2.0,32,0.00,,,0.00,650,WeatherCatV1.11B39,2013-08-08 16:22:00,
2013-08-08 09:27:00,89.2,55.4,29.84,SSW,209,1.0,4.0,32,0.00,,,0.00,663,WeatherCatV1.11B39,2013-08-08 16:27:00,
2013-08-08 09:32:00,89.6,54.0,29.84,SSW,195,2.0,6.0,30,0.00,,,0.00,677,WeatherCatV1.11B39,2013-08-08 16:32:00,
2013-08-08 09:37:00,89.3,53.8,29.84,SSW,195,4.0,4.0,30,0.00,,,0.00,689,WeatherCatV1.11B39,2013-08-08 16:37:00,
2013-08-08 09:42:00,88.8,54.2,29.84,SSW,195,2.0,2.0,31,0.00,,,0.00,705,WeatherCatV1.11B39,2013-08-08 16:42:00,
2013-08-08 09:47:00,89.9,54.3,29.84,SE,128,3.0,4.0,30,0.00,,,0.00,719,WeatherCatV1.11B39,2013-08-08 16:47:00,
2013-08-08 09:52:00,89.5,53.0,29.84,SE,128,3.0,3.0,29,0.00,,,0.00,733,WeatherCatV1.11B39,2013-08-08 16:52:00,
2013-08-08 09:57:00,89.1,53.6,29.84,SE,128,0.0,1.0,30,0.00,,,0.00,744,WeatherCatV1.11B39,2013-08-08 16:57:00,
2013-08-08 10:02:00,89.8,54.2,29.84,SE,130,0.0,1.0,30,0.00,,,0.00,754,WeatherCatV1.11B39,2013-08-08 17:02:00,
2013-08-08 10:07:00,90.7,54.0,29.83,SE,132,3.0,3.0,29,0.00,,,0.00,768,WeatherCatV1.11B39,2013-08-08 17:07:00,
2013-08-08 10:12:00,92.0,54.2,29.83,WNW,290,2.0,6.0,28,0.00,,,0.00,779,WeatherCatV1.11B39,2013-08-08 17:12:00,
2013-08-08 10:17:00,91.7,53.9,29.83,WNW,290,0.0,3.0,28,0.00,,,0.00,791,WeatherCatV1.11B39,2013-08-08 17:17:00,
2013-08-08 10:22:00,90.6,53.0,29.83,NE,41,3.0,4.0,28,0.00,,,0.00,807,WeatherCatV1.11B39,2013-08-08 17:22:00,
2013-08-08 10:27:00,90.8,54.1,29.83,NE,41,0.0,1.0,29,0.00,,,0.00,814,WeatherCatV1.11B39,2013-08-08 17:27:00,
2013-08-08 10:32:00,92.3,53.4,29.83,NNW,348,2.0,4.0,27,0.00,,,0.00,821,WeatherCatV1.11B39,2013-08-08 17:32:00,
2013-08-08 10:37:00,91.9,54.1,29.83,South,174,5.0,6.0,28,0.00,,,0.00,831,WeatherCatV1.11B39,2013-08-08 17:37:00,
2013-08-08 10:42:00,92.7,52.7,29.82,SSE,161,1.0,7.0,26,0.00,,,0.00,840,WeatherCatV1.11B39,2013-08-08 17:42:00,
2013-08-08 10:47:00,93.1,53.1,29.82,South,169,2.0,6.0,26,0.00,,,0.00,851,WeatherCatV1.11B39,2013-08-08 17:47:00,
2013-08-08 10:52:00,93.9,52.7,29.82,SW,228,0.0,5.0,25,0.00,,,0.00,860,WeatherCatV1.11B39,2013-08-08 17:52:00,
2013-08-08 10:57:00,94.9,53.5,29.82,SW,231,3.0,5.0,25,0.00,,,0.00,868,WeatherCatV1.11B39,2013-08-08 17:57:00,
2013-08-08 11:02:00,93.7,53.6,29.82,ESE,114,4.0,5.0,26,0.00,,,0.00,874,WeatherCatV1.11B39,2013-08-08 18:02:00,
2013-08-08 11:07:00,93.8,53.7,29.82,WSW,258,3.0,7.0,26,0.00,,,0.00,884,WeatherCatV1.11B39,2013-08-08 18:07:00,
2013-08-08 11:12:00,94.2,50.7,29.82,West,260,2.0,9.0,23,0.00,,,0.00,902,WeatherCatV1.11B39,2013-08-08 18:12:00,
2013-08-08 11:17:00,93.9,50.4,29.82,WNW,284,5.0,5.0,23,0.00,,,0.00,905,WeatherCatV1.11B39,2013-08-08 18:17:00,
2013-08-08 11:22:00,95.0,48.9,29.81,NNW,343,1.0,5.0,21,0.00,,,0.00,905,WeatherCatV1.11B39,2013-08-08 18:22:00,
2013-08-08 11:27:00,94.8,50.0,29.81,WSW,251,4.0,7.0,22,0.00,,,0.00,909,WeatherCatV1.11B39,2013-08-08 18:27:00,
2013-08-08 11:32:00,94.7,46.0,29.81,West,272,0.0,3.0,19,0.00,,,0.00,914,WeatherCatV1.11B39,2013-08-08 18:32:00,
2013-08-08 11:37:00,96.1,49.8,29.81,WSW,257,5.0,11.0,21,0.00,,,0.00,921,WeatherCatV1.11B39,2013-08-08 18:37:00,
2013-08-08 11:42:00,95.5,49.3,29.81,SW,226,3.0,9.0,21,0.00,,,0.00,926,WeatherCatV1.11B39,2013-08-08 18:42:00,
2013-08-08 11:47:00,96.8,49.1,29.81,WNW,286,5.0,12.0,20,0.00,,,0.00,935,WeatherCatV1.11B39,2013-08-08 18:47:00,
2013-08-08 11:52:00,96.8,47.7,29.81,SW,229,3.0,4.0,19,0.00,,,0.00,935,WeatherCatV1.11B39,2013-08-08 18:52:00,
2013-08-08 11:57:00,97.2,48.0,29.81,SW,235,6.0,10.0,19,0.00,,,0.00,930,WeatherCatV1.11B39,2013-08-08 18:57:00,
2013-08-08 12:02:00,98.0,48.7,29.81,WSW,252,9.0,12.0,19,0.00,,,0.00,944,WeatherCatV1.11B39,2013-08-08 19:02:00,
2013-08-08 12:07:00,97.2,48.0,29.80,WSW,256,3.0,9.0,19,0.00,,,0.00,951,WeatherCatV1.11B39,2013-08-08 19:07:00,
2013-08-08 12:12:00,97.3,48.1,29.80,SW,231,4.0,10.0,19,0.00,,,0.00,953,WeatherCatV1.11B39,2013-08-08 19:12:00,
2013-08-08 12:17:00,98.2,48.8,29.80,West,259,6.0,10.0,19,0.00,,,0.00,958,WeatherCatV1.11B39,2013-08-08 19:17:00,
2013-08-08 12:22:00,98.9,47.9,29.80,South,170,2.0,9.0,18,0.00,,,0.00,951,WeatherCatV1.11B39,2013-08-08 19:22:00,
2013-08-08 12:27:00,97.9,50.0,29.80,SSE,168,5.0,6.0,20,0.00,,,0.00,939,WeatherCatV1.11B39,2013-08-08 19:27:00,
2013-08-08 12:32:00,97.3,49.5,29.80,West,260,4.0,8.0,20,0.00,,,0.00,947,WeatherCatV1.11B39,2013-08-08 19:32:00,
2013-08-08 12:37:00,96.7,49.0,29.80,West,263,0.0,6.0,20,0.00,,,0.00,951,WeatherCatV1.11B39,2013-08-08 19:37:00,
2013-08-08 12:42:00,96.8,47.7,29.79,ENE,62,0.0,3.0,19,0.00,,,0.00,946,WeatherCatV1.11B39,2013-08-08 19:42:00,
2013-08-08 12:47:00,98.1,48.7,29.79,West,279,3.0,8.0,19,0.00,,,0.00,944,WeatherCatV1.11B39,2013-08-08 19:47:00,
2013-08-08 12:52:00,98.4,47.5,29.79,West,272,4.0,11.0,18,0.00,,,0.00,958,WeatherCatV1.11B39,2013-08-08 19:52:00,
2013-08-08 12:57:00,98.6,47.7,29.79,SSW,201,4.0,9.0,18,0.00,,,0.00,949,WeatherCatV1.11B39,2013-08-08 19:57:00,
2013-08-08 13:02:00,99.0,49.5,29.79,WSW,240,5.0,5.0,19,0.00,,,0.00,947,WeatherCatV1.11B39,2013-08-08 20:02:00,
2013-08-08 13:07:00,98.9,46.4,29.79,SW,219,5.0,7.0,17,0.00,,,0.00,942,WeatherCatV1.11B39,2013-08-08 20:07:00,
2013-08-08 13:12:00,98.8,46.3,29.78,NW,321,7.0,11.0,17,0.00,,,0.00,940,WeatherCatV1.11B39,2013-08-08 20:12:00,
2013-08-08 13:17:00,97.4,45.2,29.78,West,263,4.0,9.0,17,0.00,,,0.00,937,WeatherCatV1.11B39,2013-08-08 20:17:00,
2013-08-08 13:22:00,98.9,43.1,29.78,NW,313,3.0,11.0,15,0.00,,,0.00,935,WeatherCatV1.11B39,2013-08-08 20:22:00,
2013-08-08 13:27:00,98.9,41.3,29.78,WSW,244,5.0,10.0,14,0.00,,,0.00,932,WeatherCatV1.11B39,2013-08-08 20:27:00,
2013-08-08 13:32:00,99.9,42.1,29.77,SSW,213,1.0,5.0,14,0.00,,,0.00,933,WeatherCatV1.11B39,2013-08-08 20:32:00,
2013-08-08 13:37:00,99.2,43.4,29.77,WSW,252,5.0,9.0,15,0.00,,,0.00,930,WeatherCatV1.11B39,2013-08-08 20:37:00,
2013-08-08 13:42:00,99.4,41.7,29.77,South,181,3.0,7.0,14,0.00,,,0.00,916,WeatherCatV1.11B39,2013-08-08 20:42:00,
2013-08-08 13:47:00,100.0,42.2,29.77,SSE,149,4.0,5.0,14,0.00,,,0.00,907,WeatherCatV1.11B39,2013-08-08 20:47:00,
2013-08-08 13:52:00,99.5,43.6,29.77,SW,217,3.0,9.0,15,0.00,,,0.00,907,WeatherCatV1.11B39,2013-08-08 20:52:00,
2013-08-08 13:57:00,100.4,42.5,29.77,West,259,8.0,8.0,14,0.00,,,0.00,902,WeatherCatV1.11B39,2013-08-08 20:57:00,
2013-08-08 14:02:00,100.6,42.7,29.77,South,189,2.0,3.0,14,0.00,,,0.00,891,WeatherCatV1.11B39,2013-08-08 21:02:00,
2013-08-08 14:07:00,99.6,43.7,29.76,WNW,283,7.0,11.0,15,0.00,,,0.00,884,WeatherCatV1.11B39,2013-08-08 21:07:00,
2013-08-08 14:12:00,99.5,41.8,29.76,WSW,254,10.0,10.0,14,0.00,,,0.00,872,WeatherCatV1.11B39,2013-08-08 21:12:00,
2013-08-08 14:17:00,99.0,43.2,29.76,WSW,255,8.0,9.0,15,0.00,,,0.00,870,WeatherCatV1.11B39,2013-08-08 21:17:00,
2013-08-08 14:22:00,99.3,41.7,29.76,WNW,288,0.0,8.0,14,0.00,,,0.00,861,WeatherCatV1.11B39,2013-08-08 21:22:00,
2013-08-08 14:27:00,98.5,41.0,29.76,NNW,343,2.0,5.0,14,0.00,,,0.00,847,WeatherCatV1.11B39,2013-08-08 21:27:00,
2013-08-08 14:32:00,98.7,43.0,29.75,West,276,0.0,9.0,15,0.00,,,0.00,830,WeatherCatV1.11B39,2013-08-08 21:32:00,
2013-08-08 14:37:00,99.8,45.5,29.75,NNW,332,2.0,6.0,16,0.00,,,0.00,826,WeatherCatV1.11B39,2013-08-08 21:37:00,
2013-08-08 14:42:00,99.7,45.5,29.75,SW,235,5.0,8.0,16,0.00,,,0.00,810,WeatherCatV1.11B39,2013-08-08 21:42:00,
2013-08-08 14:47:00,99.2,43.4,29.75,West,262,2.0,9.0,15,0.00,,,0.00,802,WeatherCatV1.11B39,2013-08-08 21:47:00,
2013-08-08 14:52:00,99.1,43.3,29.75,SSW,195,2.0,7.0,15,0.00,,,0.00,788,WeatherCatV1.11B39,2013-08-08 21:52:00,
2013-08-08 14:57:00,100.4,44.3,29.74,West,259,4.0,7.0,15,0.00,,,0.00,779,WeatherCatV1.11B39,2013-08-08 21:57:00,
2013-08-08 15:02:00,100.0,44.0,29.74,SSW,205,6.0,6.0,15,0.00,,,0.00,765,WeatherCatV1.11B39,2013-08-08 22:02:00,
2013-08-08 15:07:00,98.9,43.1,29.74,SW,227,2.0,4.0,15,0.00,,,0.00,758,WeatherCatV1.11B39,2013-08-08 22:07:00,
2013-08-08 15:12:00,98.2,44.3,29.73,South,189,0.0,1.0,16,0.00,,,0.00,759,WeatherCatV1.11B39,2013-08-08 22:12:00,
2013-08-08 15:17:00,99.1,45.0,29.73,WSW,240,7.0,9.0,16,0.00,,,0.00,737,WeatherCatV1.11B39,2013-08-08 22:17:00,
2013-08-08 15:22:00,98.8,44.7,29.73,SSW,207,2.0,5.0,16,0.00,,,0.00,728,WeatherCatV1.11B39,2013-08-08 22:22:00,
2013-08-08 15:27:00,99.3,46.7,29.73,SW,222,4.0,6.0,17,0.00,,,0.00,726,WeatherCatV1.11B39,2013-08-08 22:27:00,
2013-08-08 15:32:00,100.5,46.1,29.72,WNW,292,9.0,14.0,16,0.00,,,0.00,715,WeatherCatV1.11B39,2013-08-08 22:32:00,
2013-08-08 15:37:00,99.9,45.6,29.73,West,279,8.0,11.0,16,0.00,,,0.00,696,WeatherCatV1.11B39,2013-08-08 22:37:00,
2013-08-08 15:42:00,98.8,44.7,29.73,West,263,6.0,10.0,16,0.00,,,0.00,693,WeatherCatV1.11B39,2013-08-08 22:42:00,
2013-08-08 15:47:00,98.1,44.2,29.73,WSW,237,3.0,6.0,16,0.00,,,0.00,666,WeatherCatV1.11B39,2013-08-08 22:47:00,
2013-08-08 15:52:00,98.9,44.8,29.72,SW,220,6.0,9.0,16,0.00,,,0.00,652,WeatherCatV1.11B39,2013-08-08 22:52:00,
2013-08-08 15:57:00,99.8,47.1,29.72,SSW,201,6.0,9.0,17,0.00,,,0.00,640,WeatherCatV1.11B39,2013-08-08 22:57:00,
2013-08-08 16:03:00,100.2,47.5,29.72,SSW,211,4.0,6.0,17,0.00,,,0.00,601,WeatherCatV1.11B39,2013-08-08 23:03:00,
2013-08-08 16:08:00,99.9,47.2,29.72,SW,232,4.0,6.0,17,0.00,,,0.00,594,WeatherCatV1.11B39,2013-08-08 23:08:00,
2013-08-08 16:13:00,99.3,45.1,29.72,South,185,4.0,6.0,16,0.00,,,0.00,584,WeatherCatV1.11B39,2013-08-08 23:13:00,
2013-08-08 16:18:00,98.9,44.8,29.72,WSW,250,4.0,7.0,16,0.00,,,0.00,568,WeatherCatV1.11B39,2013-08-08 23:18:00,
2013-08-08 16:23:00,99.4,45.2,29.72,South,183,1.0,2.0,16,0.00,,,0.00,543,WeatherCatV1.11B39,2013-08-08 23:23:00,
2013-08-08 16:28:00,99.7,45.5,29.71,SSW,213,4.0,6.0,16,0.00,,,0.00,540,WeatherCatV1.11B39,2013-08-08 23:28:00,
2013-08-08 16:33:00,99.9,45.6,29.71,SSW,205,1.0,1.0,16,0.00,,,0.00,522,WeatherCatV1.11B39,2013-08-08 23:33:00,
2013-08-08 16:38:00,100.2,44.2,29.71,SW,233,6.0,9.0,15,0.00,,,0.00,499,WeatherCatV1.11B39,2013-08-08 23:38:00,
2013-08-08 16:43:00,100.5,44.4,29.71,SSW,211,3.0,10.0,15,0.00,,,0.00,482,WeatherCatV1.11B39,2013-08-08 23:43:00,
2013-08-08 16:48:00,100.6,44.5,29.71,SSW,197,7.0,7.0,15,0.00,,,0.00,471,WeatherCatV1.11B39,2013-08-08 23:48:00,
2013-08-08 16:53:00,100.2,44.2,29.71,South,182,3.0,7.0,15,0.00,,,0.00,86,WeatherCatV1.11B39,2013-08-08 23:53:00,
2013-08-08 16:58:00,98.8,43.1,29.71,SW,236,5.0,8.0,15,0.00,,,0.00,70,WeatherCatV1.11B39,2013-08-08 23:58:00,
2013-08-08 17:03:00,97.6,43.8,29.71,South,178,4.0,9.0,16,0.00,,,0.00,371,WeatherCatV1.11B39,2013-08-09 00:03:00,
2013-08-08 17:08:00,97.4,43.6,29.71,South,184,4.0,5.0,16,0.00,,,0.00,81,WeatherCatV1.11B39,2013-08-09 00:08:00,
2013-08-08 17:13:00,96.8,44.7,29.71,WSW,247,7.0,9.0,17,0.00,,,0.00,183,WeatherCatV1.11B39,2013-08-09 00:13:00,
2013-08-08 17:18:00,97.1,45.0,29.71,SW,235,1.0,5.0,17,0.00,,,0.00,378,WeatherCatV1.11B39,2013-08-09 00:18:00,
2013-08-08 17:23:00,96.9,46.3,29.70,SSW,197,2.0,2.0,18,0.00,,,0.00,359,WeatherCatV1.11B39,2013-08-09 00:23:00,
2013-08-08 17:28:00,98.0,45.7,29.70,South,172,5.0,9.0,17,0.00,,,0.00,350,WeatherCatV1.11B39,2013-08-09 00:28:00,
2013-08-08 17:33:00,97.3,45.1,29.70,SSE,157,5.0,5.0,17,0.00,,,0.00,334,WeatherCatV1.11B39,2013-08-09 00:33:00,
2013-08-08 17:38:00,96.8,46.2,29.70,SW,223,2.0,5.0,18,0.00,,,0.00,76,WeatherCatV1.11B39,2013-08-09 00:38:00,
2013-08-08 17:43:00,97.0,44.9,29.70,SW,230,5.0,9.0,17,0.00,,,0.00,299,WeatherCatV1.11B39,2013-08-09 00:43:00,
2013-08-08 17:48:00,97.7,45.5,29.70,South,181,2.0,6.0,17,0.00,,,0.00,279,WeatherCatV1.11B39,2013-08-09 00:48:00,
2013-08-08 17:53:00,97.8,45.5,29.70,SW,220,5.0,8.0,17,0.00,,,0.00,262,WeatherCatV1.11B39,2013-08-09 00:53:00,
2013-08-08 17:58:00,97.7,45.5,29.70,SW,234,1.0,2.0,17,0.00,,,0.00,239,WeatherCatV1.11B39,2013-08-09 00:58:00,
2013-08-08 18:03:00,97.3,43.6,29.69,SW,222,6.0,6.0,16,0.00,,,0.00,213,WeatherCatV1.11B39,2013-08-09 01:03:00,
2013-08-08 18:08:00,97.6,43.8,29.69,SSW,207,4.0,6.0,16,0.00,,,0.00,186,WeatherCatV1.11B39,2013-08-09 01:08:00,
2013-08-08 18:13:00,97.5,43.7,29.69,SW,231,7.0,11.0,16,0.00,,,0.00,155,WeatherCatV1.11B39,2013-08-09 01:13:00,
2013-08-08 18:18:00,97.2,41.8,29.69,WSW,258,6.0,9.0,15,0.00,,,0.00,132,WeatherCatV1.11B39,2013-08-09 01:18:00,
2013-08-08 18:23:00,96.5,41.2,29.69,West,264,5.0,5.0,15,0.00,,,0.00,109,WeatherCatV1.11B39,2013-08-09 01:23:00,
2013-08-08 18:28:00,96.4,41.2,29.69,SW,229,6.0,9.0,15,0.00,,,0.00,88,WeatherCatV1.11B39,2013-08-09 01:28:00,
2013-08-08 18:33:00,96.1,40.9,29.69,SW,225,5.0,9.0,15,0.00,,,0.00,70,WeatherCatV1.11B39,2013-08-09 01:33:00,
2013-08-08 18:38:00,95.9,40.8,29.69,West,281,8.0,11.0,15,0.00,,,0.00,56,WeatherCatV1.11B39,2013-08-09 01:38:00,
2013-08-08 18:43:00,95.5,40.5,29.69,West,269,7.0,7.0,15,0.00,,,0.00,44,WeatherCatV1.11B39,2013-08-09 01:43:00,
2013-08-08 18:48:00,95.0,40.1,29.69,West,265,6.0,7.0,15,0.00,,,0.00,28,WeatherCatV1.11B39,2013-08-09 01:48:00,
2013-08-08 18:53:00,94.6,38.0,29.69,WSW,249,4.0,6.0,14,0.00,,,0.00,18,WeatherCatV1.11B39,2013-08-09 01:53:00,
2013-08-08 18:58:00,94.1,39.4,29.69,West,260,3.0,6.0,15,0.00,,,0.00,14,WeatherCatV1.11B39,2013-08-09 01:58:00,
2013-08-08 19:03:00,93.7,39.0,29.69,WSW,245,2.0,4.0,15,0.00,,,0.00,11,WeatherCatV1.11B39,2013-08-09 02:03:00,
2013-08-08 19:08:00,93.3,38.7,29.69,WSW,258,2.0,5.0,15,0.00,,,0.00,9,WeatherCatV1.11B39,2013-08-09 02:08:00,
2013-08-08 19:13:00,92.6,39.8,29.69,WSW,252,2.0,4.0,16,0.00,,,0.00,5,WeatherCatV1.11B39,2013-08-09 02:13:00,
2013-08-08 19:18:00,92.0,39.3,29.69,WSW,252,0.0,4.0,16,0.00,,,0.00,0,WeatherCatV1.11B39,2013-08-09 02:18:00,
2013-08-08 19:23:00,91.1,40.2,29.69,WSW,252,2.0,3.0,17,0.00,,,0.00,0,WeatherCatV1.11B39,2013-08-09 02:23:00,
2013-08-08 19:28:00,90.1,40.8,29.69,WSW,252,2.0,2.0,18,0.00,,,0.00,0,WeatherCatV1.11B39,2013-08-09 02:28:00,
2013-08-08 19:33:00,89.3,40.2,29.69,WSW,252,2.0,2.0,18,0.00,,,0.00,0,WeatherCatV1.11B39,2013-08-09 02:33:00,
2013-08-08 19:38:00,88.7,41.1,29.69,WSW,252,0.0,1.0,19,0.00,,,0.00,0,WeatherCatV1.11B39,2013-08-09 02:38:00,
2013-08-08 19:43:00,87.8,43.0,29.69,WSW,252,0.0,0.0,21,0.00,,,0.00,0,WeatherCatV1.11B39,2013-08-09 02:43:00,
2013-08-08 19:48:00,86.8,44.5,29.70,WSW,252,0.0,0.0,23,0.00,,,0.00,0,WeatherCatV1.11B39,2013-08-09 02:48:00,
2013-08-08 19:53:00,86.0,45.0,29.69,WSW,252,0.0,0.0,24,0.00,,,0.00,0,WeatherCatV1.11B39,2013-08-09 02:53:00,
2013-08-08 19:58:00,85.5,45.6,29.69,WSW,252,0.0,0.0,25,0.00,,,0.00,0,WeatherCatV1.11B39,2013-08-09 02:58:00,
2013-08-08 20:03:00,84.4,43.6,29.70,WSW,252,0.0,1.0,24,0.00,,,0.00,0,WeatherCatV1.11B39,2013-08-09 03:03:00,
2013-08-08 20:08:00,84.2,45.6,29.70,WSW,252,0.0,1.0,26,0.00,,,0.00,0,WeatherCatV1.11B39,2013-08-09 03:08:00,
2013-08-08 20:13:00,84.0,44.4,29.70,WSW,252,0.0,2.0,25,0.00,,,0.00,0,WeatherCatV1.11B39,2013-08-09 03:13:00,
2013-08-08 20:18:00,84.2,44.5,29.70,WSW,252,1.0,1.0,25,0.00,,,0.00,0,WeatherCatV1.11B39,2013-08-09 03:18:00,
2013-08-08 20:23:00,83.9,44.3,29.70,WSW,252,0.0,1.0,25,0.00,,,0.00,0,WeatherCatV1.11B39,2013-08-09 03:23:00,
2013-08-08 20:28:00,83.8,45.2,29.70,WSW,252,0.0,0.0,26,0.00,,,0.00,0,WeatherCatV1.11B39,2013-08-09 03:28:00,
2013-08-08 20:33:00,83.2,44.7,29.70,WSW,252,0.0,1.0,26,0.00,,,0.00,0,WeatherCatV1.11B39,2013-08-09 03:33:00,
2013-08-08 20:38:00,83.0,46.5,29.71,WSW,252,0.0,0.0,28,0.00,,,0.00,0,WeatherCatV1.11B39,2013-08-09 03:38:00,
2013-08-08 20:43:00,82.8,46.3,29.71,WSW,252,0.0,0.0,28,0.00,,,0.00,0,WeatherCatV1.11B39,2013-08-09 03:43:00,
2013-08-08 20:48:00,82.3,46.8,29.71,WSW,252,0.0,1.0,29,0.00,,,0.00,0,WeatherCatV1.11B39,2013-08-09 03:48:00,
2013-08-08 20:53:00,82.0,46.6,29.72,WSW,251,1.0,2.0,29,0.00,,,0.00,0,WeatherCatV1.11B39,2013-08-09 03:53:00,
2013-08-08 20:58:00,81.6,46.2,29.72,WSW,249,0.0,2.0,29,0.00,,,0.00,0,WeatherCatV1.11B39,2013-08-09 03:58:00,
2013-08-08 21:01:00,82.3,46.8,29.72,WSW,249,0.0,0.0,29,0.00,,,0.00,0,WeatherCatV1.11B39,2013-08-09 04:01:00,
2013-08-08 21:06:00,82.1,46.7,29.72,WSW,249,0.0,1.0,29,0.00,,,0.00,0,WeatherCatV1.11B39,2013-08-09 04:06:00,
2013-08-08 21:11:00,82.1,46.7,29.72,WSW,249,0.0,1.0,29,0.00,,,0.00,0,WeatherCatV1.11B39,2013-08-09 04:11:00,
2013-08-08 21:16:00,81.9,46.5,29.73,WSW,249,0.0,0.0,29,0.00,,,0.00,0,WeatherCatV1.11B39,2013-08-09 04:16:00,
2013-08-08 21:21:00,81.0,47.5,29.73,WSW,249,0.0,1.0,31,0.00,,,0.00,0,WeatherCatV1.11B39,2013-08-09 04:21:00,
2013-08-08 21:26:00,80.9,47.4,29.73,WSW,249,0.0,2.0,31,0.00,,,0.00,0,WeatherCatV1.11B39,2013-08-09 04:26:00,
2013-08-08 21:31:00,80.6,47.1,29.73,WSW,249,0.0,1.0,31,0.00,,,0.00,0,WeatherCatV1.11B39,2013-08-09 04:31:00,
2013-08-08 21:36:00,80.0,46.6,29.73,WSW,249,1.0,1.0,31,0.00,,,0.00,0,WeatherCatV1.11B39,2013-08-09 04:36:00,
2013-08-08 21:41:00,80.3,46.0,29.74,WSW,249,0.0,0.0,30,0.00,,,0.00,0,WeatherCatV1.11B39,2013-08-09 04:41:00,
2013-08-08 21:46:00,79.5,46.2,29.74,WSW,249,1.0,1.0,31,0.00,,,0.00,0,WeatherCatV1.11B39,2013-08-09 04:46:00,
2013-08-08 21:51:00,80.0,45.8,29.74,WSW,249,1.0,2.0,30,0.00,,,0.00,0,WeatherCatV1.11B39,2013-08-09 04:51:00,
2013-08-08 21:56:00,80.5,46.2,29.74,WSW,249,1.0,2.0,30,0.00,,,0.00,0,WeatherCatV1.11B39,2013-08-09 04:56:00,
2013-08-08 22:01:00,80.0,45.8,29.74,WSW,249,0.0,0.0,30,0.00,,,0.00,0,WeatherCatV1.11B39,2013-08-09 05:01:00,
2013-08-08 22:06:00,79.4,46.1,29.74,WSW,249,0.0,1.0,31,0.00,,,0.00,0,WeatherCatV1.11B39,2013-08-09 05:06:00,
2013-08-08 22:11:00,78.4,47.7,29.74,WSW,249,0.0,0.0,34,0.00,,,0.00,0,WeatherCatV1.11B39,2013-08-09 05:11:00,
2013-08-08 22:16:00,76.9,47.1,29.74,WSW,249,1.0,2.0,35,0.00,,,0.00,0,WeatherCatV1.11B39,2013-08-09 05:16:00,
2013-08-08 22:21:00,76.5,47.5,29.74,WSW,249,0.0,1.0,36,0.00,,,0.00,0,WeatherCatV1.11B39,2013-08-09 05:21:00,
2013-08-08 22:26:00,76.6,47.6,29.74,WSW,249,1.0,1.0,36,0.00,,,0.00,0,WeatherCatV1.11B39,2013-08-09 05:26:00,
2013-08-08 22:31:00,76.1,47.9,29.74,WSW,249,1.0,1.0,37,0.00,,,0.00,0,WeatherCatV1.11B39,2013-08-09 05:31:00,
2013-08-08 22:36:00,75.4,48.7,29.74,WSW,249,0.0,0.0,39,0.00,,,0.00,0,WeatherCatV1.11B39,2013-08-09 05:36:00,
2013-08-08 22:41:00,75.2,49.2,29.75,WSW,249,1.0,1.0,40,0.00,,,0.00,0,WeatherCatV1.11B39,2013-08-09 05:41:00,
2013-08-08 22:46:00,74.6,48.0,29.75,WSW,249,0.0,1.0,39,0.00,,,0.00,0,WeatherCatV1.11B39,2013-08-09 05:46:00,
2013-08-08 22:51:00,74.8,46.8,29.75,WSW,249,0.0,0.0,37,0.00,,,0.00,0,WeatherCatV1.11B39,2013-08-09 05:51:00,
2013-08-08 22:56:00,75.0,47.7,29.75,WSW,249,0.0,0.0,38,0.00,,,0.00,0,WeatherCatV1.11B39,2013-08-09 05:56:00,
2013-08-08 23:01:00,74.5,47.9,29.75,WSW,249,0.0,2.0,39,0.00,,,0.00,0,WeatherCatV1.11B39,2013-08-09 06:01:00,
2013-08-08 23:06:00,73.9,48.0,29.75,WSW,249,1.0,1.0,40,0.00,,,0.00,0,WeatherCatV1.11B39,2013-08-09 06:06:00,
2013-08-08 23:11:00,73.8,48.0,29.75,WSW,249,0.0,1.0,40,0.00,,,0.00,0,WeatherCatV1.11B39,2013-08-09 06:11:00,
2013-08-08 23:16:00,73.8,47.3,29.75,WSW,249,0.0,1.0,39,0.00,,,0.00,0,WeatherCatV1.11B39,2013-08-09 06:16:00,
2013-08-08 23:21:00,73.5,49.0,29.75,WSW,249,0.0,1.0,42,0.00,,,0.00,0,WeatherCatV1.11B39,2013-08-09 06:21:00,
2013-08-08 23:26:00,73.1,48.0,29.75,WSW,249,0.0,1.0,41,0.00,,,0.00,0,WeatherCatV1.11B39,2013-08-09 06:26:00,
2013-08-08 23:31:00,73.4,47.6,29.75,WSW,249,0.0,0.0,40,0.00,,,0.00,0,WeatherCatV1.11B39,2013-08-09 06:31:00,
2013-08-08 23:36:00,73.0,48.5,29.75,WSW,249,0.0,0.0,42,0.00,,,0.00,0,WeatherCatV1.11B39,2013-08-09 06:36:00,
2013-08-08 23:41:00,72.8,48.4,29.75,WSW,249,1.0,1.0,42,0.00,,,0.00,0,WeatherCatV1.11B39,2013-08-09 06:41:00,
2013-08-08 23:46:00,72.7,48.3,29.75,WSW,249,0.0,1.0,42,0.00,,,0.00,0,WeatherCatV1.11B39,2013-08-09 06:46:00,
2013-08-08 23:51:00,72.4,48.6,29.75,WSW,249,0.0,0.0,43,0.00,,,0.00,0,WeatherCatV1.11B39,2013-08-09 06:51:00,
2013-08-08 23:56:00,71.6,47.9,29.75,WSW,249,0.0,0.0,43,0.00,,,0.00,0,WeatherCatV1.11B39,2013-08-09 06:56:00,